Location: Phoenix
(33.4480°N, 112.0730°W)
Time: 04:45:44
(UTC-07:00)

Cosmos 1470 Rocket - Visible Passes

Search period start: 04 August 2015 00:00
Search period end: 14 August 2015 00:00
Orbit: 603 x 636 km, 82.5° (Epoch: 03 August)

Date Brightness Start Highest point End Pass type
(mag) Time Alt. Az. Time Alt. Az. Time Alt. Az.
04 Aug 3.6 04:04:46 10° NNW 04:09:04 57° W 04:11:02 30° SSW visible
05 Aug 6.0 02:45:33 10° NNE 02:48:33 19° ENE 02:50:24 15° ESE visible
05 Aug 4.5 04:22:44 10° NNW 04:26:30 28° W 04:27:30 25° WSW visible
06 Aug 4.9 03:02:16 10° NNE 03:06:17 36° E 03:06:59 34° E visible
06 Aug 5.3 04:41:28 10° NW 04:43:55 14° W 04:44:06 14° W visible
07 Aug 3.7 03:19:30 10° N 03:23:39 72° NE 03:23:39 72° NE visible
08 Aug 6.6 02:02:51 10° ENE 02:03:03 10° ENE 02:03:16 10° ENE visible
08 Aug 4.2 03:37:06 10° NNW 03:40:23 43° NW 03:40:23 43° NW visible
09 Aug 6.0 02:17:43 10° NNE 02:20:04 19° ENE 02:20:04 19° ENE visible
09 Aug 5.2 03:55:06 10° NNW 03:57:10 21° WNW 03:57:10 21° WNW visible
10 Aug 5.5 02:34:30 10° N 02:36:54 27° NNE 02:36:54 27° NNE visible
10 Aug 5.9 04:13:59 10° WNW 04:14:02 10° WNW 04:14:02 10° WNW visible
11 Aug 5.4 02:51:47 10° N 02:53:49 27° N 02:53:49 27° N visible
12 Aug 5.7 03:09:26 10° NNW 03:10:45 19° NNW 03:10:45 19° NNW visible
13 Aug 6.6 01:49:53 10° NNE 01:50:36 13° NNE 01:50:36 13° NNE visible
13 Aug 6.1 03:27:30 10° NW 03:27:43 11° NW 03:27:43 11° NW visible
